User: anonymous   Login
Location: Eastlake (historical)
(39.0077°N, 122.6678°W)
Time: 08:27:41
(UTC+00:00)
Language:

USA 234 - Orbit

View from above orbital plane
View from above orbital plane
View from above satellite
View from above satellite

Ground track
Ground track

The orbit data is extracted from the following two-line orbital elements,

1 38109U 12014A   21060.78466787 0.00000000  00000-0  00000-0 0    04
2 38109 122.9962 235.8878 0004599  72.4473 287.5527 13.41424904    07
Epoch (UTC): 01 March 2021 18:49:55
Eccentricity: 0.0004599
inclination: 122.9962°
perigee height: 1100 km
apogee height: 1107 km
right ascension of ascending node: 235.8878°
argument of perigee: 72.4473°
revolutions per day: 13.41424904
mean anomaly at epoch: 287.5527°
orbit number at epoch: 0

The dashed part of the orbit path shows where the satellite is in the earth's shadow,  

DLR